User: anonymous   Login
Location: Casteau
(50.5142°N, 4.0161°E)
Time: 22:19:58
(UTC+00:00)
Language:

SPOT 5 - Orbit

View from above orbital plane
View from above orbital plane
View from above satellite
View from above satellite

Ground track
Ground track

The orbit data is extracted from the following two-line orbital elements,

1 27421U 02021A   20336.92763599  .00000100  00000-0  33013-4 0  9990
2 27421  98.2561  45.1514 0136136  50.9264 310.3972 14.52065514969052
Epoch (UTC): 01 December 2020 22:15:47
Eccentricity: 0.0136136
inclination: 98.2561°
perigee height: 622 km
apogee height: 815 km
right ascension of ascending node: 45.1514°
argument of perigee: 50.9264°
revolutions per day: 14.52065514
mean anomaly at epoch: 310.3972°
orbit number at epoch: 96905

The dashed part of the orbit path shows where the satellite is in the earth's shadow,  

DLR